Time,TemperatureF,DewpointF,PressureIn,WindDirection,WindDirectionDegrees,WindSpeedMPH,WindSpeedGustMPH,Humidity,HourlyPrecipIn,Conditions,Clouds,dailyrainin,SoftwareType,DateUTC
2013-06-02 00:00:00,66.7,29.8,29.68,North,0,0.0,0.0,25,0.00,,---,0.00,VWS V14.00,2013-06-02 07:00:00,
2013-06-02 00:30:00,65.8,33.5,29.68,ENE,68,0.0,2.0,30,0.00,,---,0.00,VWS V14.00,2013-06-02 07:30:00,
2013-06-02 01:00:00,66.9,35.3,29.68,ENE,68,0.0,0.0,31,0.00,,---,0.00,VWS V14.00,2013-06-02 08:00:00,
2013-06-02 01:30:00,66.8,34.4,29.67,ENE,68,0.0,0.0,30,0.00,,---,0.00,VWS V14.00,2013-06-02 08:30:00,
2013-06-02 02:00:00,65.8,35.9,29.67,ENE,68,0.0,0.0,33,0.00,,---,0.00,VWS V14.00,2013-06-02 09:00:00,
2013-06-02 02:30:00,65.9,35.2,29.67,ENE,68,0.0,0.0,32,0.00,,---,0.00,VWS V14.00,2013-06-02 09:30:00,
2013-06-02 03:00:00,66.0,36.8,29.66,ENE,68,0.0,0.0,34,0.00,,---,0.00,VWS V14.00,2013-06-02 10:00:00,
2013-06-02 03:30:00,66.6,37.4,29.65,ENE,68,0.0,1.0,34,0.00,,---,0.00,VWS V14.00,2013-06-02 10:30:00,
2013-06-02 04:00:00,65.6,37.2,29.66,ENE,68,0.0,0.0,35,0.00,,---,0.00,VWS V14.00,2013-06-02 11:00:00,
2013-06-02 04:30:00,61.4,35.6,29.66,ENE,68,0.0,0.0,38,0.00,,---,0.00,VWS V14.00,2013-06-02 11:30:00,
2013-06-02 05:00:00,62.5,35.9,29.66,ENE,68,0.0,0.0,37,0.00,,---,0.00,VWS V14.00,2013-06-02 12:00:00,
2013-06-02 05:30:00,62.7,36.8,29.66,ENE,68,0.0,0.0,38,0.00,,---,0.00,VWS V14.00,2013-06-02 12:30:00,
2013-06-02 06:00:00,60.8,37.0,29.66,ENE,68,0.0,1.0,41,0.00,,---,0.00,VWS V14.00,2013-06-02 13:00:00,
2013-06-02 06:29:00,70.1,40.5,29.66,ENE,63,0.0,0.0,34,0.00,,---,0.00,VWS V14.00,2013-06-02 13:29:00,
2013-06-02 06:30:00,70.8,40.3,29.67,ENE,61,0.0,0.0,33,0.00,,---,0.00,VWS V14.00,2013-06-02 13:30:00,
2013-06-02 06:34:00,71.7,41.1,29.67,ENE,61,0.0,0.0,33,0.00,,---,0.00,VWS V14.00,2013-06-02 13:34:00,
2013-06-02 06:39:00,73.5,41.0,29.66,ENE,61,0.0,0.0,31,0.00,,---,0.00,VWS V14.00,2013-06-02 13:39:00,
2013-06-02 06:44:00,75.0,41.5,29.66,ENE,61,0.0,0.0,30,0.00,,---,0.00,VWS V14.00,2013-06-02 13:44:00,
2013-06-02 06:49:00,76.1,41.6,29.67,ENE,61,0.0,0.0,29,0.00,,---,0.00,VWS V14.00,2013-06-02 13:49:00,
2013-06-02 06:54:00,76.9,41.3,29.66,ENE,61,0.0,0.0,28,0.00,,---,0.00,VWS V14.00,2013-06-02 13:54:00,
2013-06-02 06:59:00,77.6,41.0,29.67,ENE,61,0.0,0.0,27,0.00,,---,0.00,VWS V14.00,2013-06-02 13:59:00,
2013-06-02 07:00:00,78.0,41.3,29.67,ENE,61,0.0,0.0,27,0.00,,---,0.00,VWS V14.00,2013-06-02 14:00:00,
2013-06-02 07:04:00,78.5,41.8,29.66,ENE,61,0.0,0.0,27,0.00,,---,0.00,VWS V14.00,2013-06-02 14:04:00,
2013-06-02 07:09:00,79.1,41.3,29.67,ENE,61,0.0,0.0,26,0.00,,---,0.00,VWS V14.00,2013-06-02 14:09:00,
2013-06-02 07:14:00,79.4,41.6,29.67,ENE,61,0.0,0.0,26,0.00,,---,0.00,VWS V14.00,2013-06-02 14:14:00,
2013-06-02 07:19:00,79.3,41.5,29.67,NE,34,0.0,4.0,26,0.00,,---,0.00,VWS V14.00,2013-06-02 14:19:00,
2013-06-02 07:24:00,79.7,41.8,29.67,NE,34,0.0,4.0,26,0.00,,---,0.00,VWS V14.00,2013-06-02 14:24:00,
2013-06-02 07:29:00,80.1,41.1,29.67,NE,34,0.0,4.0,25,0.00,,---,0.00,VWS V14.00,2013-06-02 14:29:00,
2013-06-02 07:30:00,80.3,41.3,29.67,NE,34,0.0,4.0,25,0.00,,---,0.00,VWS V14.00,2013-06-02 14:30:00,
2013-06-02 07:34:00,80.7,41.7,29.67,NE,34,0.0,0.0,25,0.00,,---,0.00,VWS V14.00,2013-06-02 14:34:00,
2013-06-02 07:39:00,81.3,41.1,29.67,NE,34,0.0,0.0,24,0.00,,---,0.00,VWS V14.00,2013-06-02 14:39:00,
2013-06-02 07:44:00,82.1,41.8,29.67,NE,34,0.0,0.0,24,0.00,,---,0.00,VWS V14.00,2013-06-02 14:44:00,
2013-06-02 07:49:00,82.2,40.8,29.67,NE,34,0.0,0.0,23,0.00,,---,0.00,VWS V14.00,2013-06-02 14:49:00,
2013-06-02 07:54:00,82.3,40.8,29.67,NE,34,0.0,2.0,23,0.00,,---,0.00,VWS V14.00,2013-06-02 14:54:00,
2013-06-02 07:59:00,82.3,40.8,29.67,NE,34,0.0,2.0,23,0.00,,---,0.00,VWS V14.00,2013-06-02 14:59:00,
2013-06-02 08:00:00,82.5,41.0,29.67,NE,34,0.0,2.0,23,0.00,,---,0.00,VWS V14.00,2013-06-02 15:00:00,
2013-06-02 08:04:00,82.9,41.3,29.67,NE,34,0.0,0.0,23,0.00,,---,0.00,VWS V14.00,2013-06-02 15:04:00,
2013-06-02 08:09:00,83.4,40.6,29.67,NNE,33,0.0,1.0,22,0.00,,---,0.00,VWS V14.00,2013-06-02 15:09:00,
2013-06-02 08:14:00,83.6,40.8,29.67,NNW,342,0.0,3.0,22,0.00,,---,0.00,VWS V14.00,2013-06-02 15:14:00,
2013-06-02 08:19:00,83.7,40.9,29.67,NW,304,2.0,3.0,22,0.00,,---,0.00,VWS V14.00,2013-06-02 15:19:00,
2013-06-02 08:24:00,83.8,42.1,29.67,WNW,286,0.0,3.0,23,0.00,,---,0.00,VWS V14.00,2013-06-02 15:24:00,
2013-06-02 08:30:00,83.9,41.0,29.66,West,277,0.0,3.0,22,0.00,,---,0.00,VWS V14.00,2013-06-02 15:30:00,
2013-06-02 08:35:00,84.1,41.2,29.67,West,270,3.0,6.0,22,0.00,,---,0.00,VWS V14.00,2013-06-02 15:35:00,
2013-06-02 08:40:00,84.0,41.1,29.67,West,268,0.0,6.0,22,0.00,,---,0.00,VWS V14.00,2013-06-02 15:40:00,
2013-06-02 08:45:00,84.4,40.2,29.66,West,268,0.0,6.0,21,0.00,,---,0.00,VWS V14.00,2013-06-02 15:45:00,
2013-06-02 08:50:00,84.8,40.6,29.66,West,268,0.0,6.0,21,0.00,,---,0.00,VWS V14.00,2013-06-02 15:50:00,
2013-06-02 08:55:00,85.1,40.8,29.67,West,268,0.0,6.0,21,0.00,,---,0.00,VWS V14.00,2013-06-02 15:55:00,
2013-06-02 09:00:00,85.3,41.0,29.67,West,268,0.0,6.0,21,0.00,,---,0.00,VWS V14.00,2013-06-02 16:00:00,
2013-06-02 09:05:00,85.7,41.3,29.66,West,268,0.0,0.0,21,0.00,,---,0.00,VWS V14.00,2013-06-02 16:05:00,
2013-06-02 09:10:00,86.1,40.4,29.66,West,268,0.0,4.0,20,0.00,,---,0.00,VWS V14.00,2013-06-02 16:10:00,
2013-06-02 09:15:00,86.2,40.5,29.66,West,263,0.0,4.0,20,0.00,,---,0.00,VWS V14.00,2013-06-02 16:15:00,
2013-06-02 09:20:00,86.5,40.7,29.66,West,263,0.0,4.0,20,0.00,,---,0.00,VWS V14.00,2013-06-02 16:20:00,
2013-06-02 09:25:00,86.7,40.9,29.66,West,260,0.0,10.0,20,0.00,,---,0.00,VWS V14.00,2013-06-02 16:25:00,
2013-06-02 09:30:00,87.3,40.0,29.66,WSW,248,1.0,10.0,19,0.00,,---,0.00,VWS V14.00,2013-06-02 16:30:00,
2013-06-02 09:35:00,87.3,40.0,29.66,WSW,246,2.0,6.0,19,0.00,,---,0.00,VWS V14.00,2013-06-02 16:35:00,
2013-06-02 09:40:00,87.6,40.3,29.66,WSW,246,0.0,6.0,19,0.00,,---,0.00,VWS V14.00,2013-06-02 16:40:00,
2013-06-02 09:45:00,88.5,41.0,29.66,WSW,246,0.0,6.0,19,0.00,,---,0.00,VWS V14.00,2013-06-02 16:45:00,
2013-06-02 09:50:00,89.3,40.3,29.66,WSW,240,0.0,6.0,18,0.00,,---,0.00,VWS V14.00,2013-06-02 16:50:00,
2013-06-02 09:55:00,89.7,40.6,29.66,SE,138,3.0,10.0,18,0.00,,---,0.00,VWS V14.00,2013-06-02 16:55:00,
2013-06-02 10:00:00,90.1,40.9,29.65,SE,137,0.0,10.0,18,0.00,,---,0.00,VWS V14.00,2013-06-02 17:00:00,
2013-06-02 10:05:00,90.6,39.9,29.65,SE,136,0.0,0.0,17,0.00,,---,0.00,VWS V14.00,2013-06-02 17:05:00,
2013-06-02 10:10:00,90.9,40.1,29.65,SW,218,0.0,9.0,17,0.00,,---,0.00,VWS V14.00,2013-06-02 17:10:00,
2013-06-02 10:15:00,91.0,40.2,29.65,SSW,209,6.0,9.0,17,0.00,,---,0.00,VWS V14.00,2013-06-02 17:15:00,
2013-06-02 10:20:00,90.3,39.6,29.65,SSW,205,5.0,10.0,17,0.00,,---,0.00,VWS V14.00,2013-06-02 17:20:00,
2013-06-02 10:25:00,90.0,39.4,29.65,West,259,9.0,10.0,17,0.00,,---,0.00,VWS V14.00,2013-06-02 17:25:00,
2013-06-02 10:30:00,90.0,39.4,29.65,SSE,167,0.0,10.0,17,0.00,,---,0.00,VWS V14.00,2013-06-02 17:30:00,
2013-06-02 10:35:00,90.6,39.9,29.65,SE,140,1.0,9.0,17,0.00,,---,0.00,VWS V14.00,2013-06-02 17:35:00,
2013-06-02 11:00:00,91.2,35.4,29.65,SSE,158,4.0,15.0,14,0.00,,---,0.00,VWS V14.00,2013-06-02 18:00:00,
2013-06-02 11:30:00,92.9,36.7,29.63,WSW,250,0.0,13.0,14,0.00,,---,0.00,VWS V14.00,2013-06-02 18:30:00,
2013-06-02 12:00:00,93.2,37.0,29.63,South,177,3.0,17.0,14,0.00,,---,0.00,VWS V14.00,2013-06-02 19:00:00,
2013-06-02 12:26:00,93.0,36.8,29.62,South,190,3.0,18.0,14,0.00,,---,0.00,VWS V14.00,2013-06-02 19:26:00,
2013-06-02 12:31:00,93.9,35.7,29.62,SW,227,2.0,18.0,13,0.00,,---,0.00,VWS V14.00,2013-06-02 19:31:00,
2013-06-02 12:36:00,93.4,35.3,29.61,SSW,205,2.0,11.0,13,0.00,,---,0.00,VWS V14.00,2013-06-02 19:36:00,
2013-06-02 12:41:00,93.5,35.3,29.61,SSW,195,0.0,11.0,13,0.00,,---,0.00,VWS V14.00,2013-06-02 19:41:00,
2013-06-02 12:46:00,94.0,37.6,29.61,SSE,165,11.0,28.0,14,0.00,,---,0.00,VWS V14.00,2013-06-02 19:46:00,
2013-06-02 12:51:00,94.1,35.8,29.61,SSE,150,4.0,28.0,13,0.00,,---,0.00,VWS V14.00,2013-06-02 19:51:00,
2013-06-02 12:56:00,94.6,36.2,29.61,ESE,123,7.0,28.0,13,0.00,,---,0.00,VWS V14.00,2013-06-02 19:56:00,
2013-06-02 13:01:00,94.6,36.2,29.61,SE,142,9.0,28.0,13,0.00,,---,0.00,VWS V14.00,2013-06-02 20:01:00,
2013-06-02 13:06:00,94.9,36.4,29.61,SE,127,3.0,17.0,13,0.00,,---,0.00,VWS V14.00,2013-06-02 20:06:00,
2013-06-02 13:11:00,95.3,36.7,29.60,SE,146,11.0,17.0,13,0.00,,---,0.00,VWS V14.00,2013-06-02 20:11:00,
2013-06-02 13:16:00,95.5,36.9,29.60,SSW,196,0.0,17.0,13,0.00,,---,0.00,VWS V14.00,2013-06-02 20:16:00,
2013-06-02 13:21:00,95.4,36.8,29.59,SW,220,4.0,17.0,13,0.00,,---,0.00,VWS V14.00,2013-06-02 20:21:00,
2013-06-02 13:26:00,95.8,37.1,29.59,West,269,10.0,17.0,13,0.00,,---,0.00,VWS V14.00,2013-06-02 20:26:00,
2013-06-02 13:31:00,95.8,37.1,29.59,SW,220,9.0,17.0,13,0.00,,---,0.00,VWS V14.00,2013-06-02 20:31:00,
2013-06-02 13:36:00,95.3,36.7,29.59,SE,132,0.0,9.0,13,0.00,,---,0.00,VWS V14.00,2013-06-02 20:36:00,
2013-06-02 13:41:00,95.1,36.6,29.58,South,179,0.0,11.0,13,0.00,,---,0.00,VWS V14.00,2013-06-02 20:41:00,
2013-06-02 13:46:00,95.0,36.5,29.58,West,281,9.0,14.0,13,0.00,,---,0.00,VWS V14.00,2013-06-02 20:46:00,
2013-06-02 13:51:00,95.1,36.6,29.58,SSW,207,0.0,21.0,13,0.00,,---,0.00,VWS V14.00,2013-06-02 20:51:00,
2013-06-02 13:56:00,95.3,36.7,29.58,South,171,8.0,21.0,13,0.00,,---,0.00,VWS V14.00,2013-06-02 20:56:00,
2013-06-02 14:02:00,95.7,37.0,29.58,South,170,2.0,4.0,13,0.00,,---,0.00,VWS V14.00,2013-06-02 21:02:00,
2013-06-02 14:07:00,95.5,36.9,29.58,SE,142,10.0,15.0,13,0.00,,---,0.00,VWS V14.00,2013-06-02 21:07:00,
2013-06-02 14:12:00,95.4,36.8,29.58,SE,132,7.0,15.0,13,0.00,,---,0.00,VWS V14.00,2013-06-02 21:12:00,
2013-06-02 14:17:00,95.5,36.9,29.57,ESE,111,3.0,15.0,13,0.00,,---,0.00,VWS V14.00,2013-06-02 21:17:00,
2013-06-02 14:22:00,96.4,35.6,29.56,SE,126,5.0,15.0,12,0.00,,---,0.00,VWS V14.00,2013-06-02 21:22:00,
2013-06-02 14:27:00,96.9,33.8,29.57,SW,219,5.0,15.0,11,0.00,,---,0.00,VWS V14.00,2013-06-02 21:27:00,
2013-06-02 14:32:00,96.4,33.4,29.56,SW,230,6.0,6.0,11,0.00,,---,0.00,VWS V14.00,2013-06-02 21:32:00,
2013-06-02 14:37:00,96.3,35.5,29.56,SSW,209,5.0,11.0,12,0.00,,---,0.00,VWS V14.00,2013-06-02 21:37:00,
2013-06-02 14:42:00,96.4,33.4,29.56,SSW,196,0.0,11.0,11,0.00,,---,0.00,VWS V14.00,2013-06-02 21:42:00,
2013-06-02 14:47:00,96.9,33.8,29.56,WSW,251,7.0,11.0,11,0.00,,---,0.00,VWS V14.00,2013-06-02 21:47:00,
2013-06-02 14:52:00,97.5,31.9,29.56,SW,233,11.0,18.0,10,0.00,,---,0.00,VWS V14.00,2013-06-02 21:52:00,
2013-06-02 14:57:00,97.4,34.2,29.55,SW,225,10.0,18.0,11,0.00,,---,0.00,VWS V14.00,2013-06-02 21:57:00,
2013-06-02 15:02:00,97.3,34.1,29.55,SW,225,1.0,3.0,11,0.00,,---,0.00,VWS V14.00,2013-06-02 22:02:00,
2013-06-02 15:07:00,97.0,36.0,29.55,West,261,11.0,18.0,12,0.00,,---,0.00,VWS V14.00,2013-06-02 22:07:00,
2013-06-02 15:12:00,96.7,35.8,29.55,West,264,9.0,18.0,12,0.00,,---,0.00,VWS V14.00,2013-06-02 22:12:00,
2013-06-02 15:17:00,96.8,35.9,29.55,WSW,249,5.0,18.0,12,0.00,,---,0.00,VWS V14.00,2013-06-02 22:17:00,
2013-06-02 15:22:00,96.0,33.1,29.54,SSW,207,2.0,18.0,11,0.00,,---,0.00,VWS V14.00,2013-06-02 22:22:00,
2013-06-02 15:27:00,96.3,33.3,29.54,SW,220,0.0,20.0,11,0.00,,---,0.00,VWS V14.00,2013-06-02 22:27:00,
2013-06-02 15:32:00,96.7,31.2,29.54,SW,223,9.0,15.0,10,0.00,,---,0.00,VWS V14.00,2013-06-02 22:32:00,
2013-06-02 15:37:00,96.7,31.2,29.54,SW,225,6.0,16.0,10,0.00,,---,0.00,VWS V14.00,2013-06-02 22:37:00,
2013-06-02 15:42:00,96.4,33.4,29.54,SW,223,10.0,16.0,11,0.00,,---,0.00,VWS V14.00,2013-06-02 22:42:00,
2013-06-02 15:47:00,96.2,33.2,29.53,SW,227,10.0,16.0,11,0.00,,---,0.00,VWS V14.00,2013-06-02 22:47:00,
2013-06-02 15:52:00,96.5,33.5,29.54,West,267,1.0,16.0,11,0.00,,---,0.00,VWS V14.00,2013-06-02 22:52:00,
2013-06-02 15:57:00,95.6,32.8,29.53,WNW,303,9.0,16.0,11,0.00,,---,0.00,VWS V14.00,2013-06-02 22:57:00,
2013-06-02 16:02:00,94.5,34.1,29.53,WNW,288,0.0,0.0,12,0.00,,---,0.00,VWS V14.00,2013-06-02 23:02:00,
2013-06-02 16:07:00,94.5,31.9,29.53,SSW,196,0.0,9.0,11,0.00,,---,0.00,VWS V14.00,2013-06-02 23:07:00,
2013-06-02 16:12:00,95.0,32.3,29.53,SSW,210,6.0,15.0,11,0.00,,---,0.00,VWS V14.00,2013-06-02 23:12:00,
2013-06-02 16:17:00,95.4,32.6,29.53,SW,219,15.0,22.0,11,0.00,,---,0.00,VWS V14.00,2013-06-02 23:17:00,
2013-06-02 16:22:00,95.4,32.6,29.53,WSW,247,10.0,22.0,11,0.00,,---,0.00,VWS V14.00,2013-06-02 23:22:00,
2013-06-02 16:27:00,95.5,32.7,29.52,West,269,13.0,22.0,11,0.00,,---,0.00,VWS V14.00,2013-06-02 23:27:00,
2013-06-02 16:32:00,95.3,32.5,29.53,SSW,196,10.0,17.0,11,0.00,,---,0.00,VWS V14.00,2013-06-02 23:32:00,
2013-06-02 16:37:00,95.8,32.9,29.53,WSW,243,3.0,17.0,11,0.00,,---,0.00,VWS V14.00,2013-06-02 23:37:00,
2013-06-02 16:42:00,95.8,30.6,29.53,West,268,5.0,17.0,10,0.00,,---,0.00,VWS V14.00,2013-06-02 23:42:00,
2013-06-02 16:47:00,95.3,32.5,29.53,SSE,151,3.0,17.0,11,0.00,,---,0.00,VWS V14.00,2013-06-02 23:47:00,
2013-06-02 16:52:00,95.2,32.5,29.53,WSW,254,0.0,17.0,11,0.00,,---,0.00,VWS V14.00,2013-06-02 23:52:00,
2013-06-02 16:57:00,95.1,32.4,29.53,WSW,254,4.0,17.0,11,0.00,,---,0.00,VWS V14.00,2013-06-02 23:57:00,
2013-06-02 17:02:00,95.1,32.4,29.52,West,268,13.0,13.0,11,0.00,,---,0.00,VWS V14.00,2013-06-03 00:02:00,
2013-06-02 17:07:00,94.9,32.2,29.51,West,274,10.0,17.0,11,0.00,,---,0.00,VWS V14.00,2013-06-03 00:07:00,
2013-06-02 17:12:00,95.0,32.3,29.53,WSW,238,6.0,17.0,11,0.00,,---,0.00,VWS V14.00,2013-06-03 00:12:00,
2013-06-02 17:17:00,95.0,32.3,29.53,WNW,282,5.0,20.0,11,0.00,,---,0.00,VWS V14.00,2013-06-03 00:17:00,
2013-06-02 17:23:00,94.5,31.9,29.52,WNW,288,18.0,20.0,11,0.00,,---,0.00,VWS V14.00,2013-06-03 00:23:00,
2013-06-02 17:27:00,93.9,31.5,29.52,WSW,252,5.0,20.0,11,0.00,,---,0.00,VWS V14.00,2013-06-03 00:27:00,
2013-06-02 17:32:00,93.6,31.2,29.52,West,269,5.0,14.0,11,0.00,,---,0.00,VWS V14.00,2013-06-03 00:32:00,
2013-06-02 17:37:00,93.4,31.1,29.53,SSW,194,6.0,14.0,11,0.00,,---,0.00,VWS V14.00,2013-06-03 00:37:00,
2013-06-02 17:42:00,93.3,31.0,29.53,SW,227,4.0,14.0,11,0.00,,---,0.00,VWS V14.00,2013-06-03 00:42:00,
2013-06-02 17:47:00,93.5,31.2,29.53,WSW,248,4.0,16.0,11,0.00,,---,0.00,VWS V14.00,2013-06-03 00:47:00,
2013-06-02 17:53:00,93.5,31.2,29.53,SW,217,5.0,16.0,11,0.00,,---,0.00,VWS V14.00,2013-06-03 00:53:00,
2013-06-02 17:58:00,93.3,31.0,29.53,WSW,239,15.0,17.0,11,0.00,,---,0.00,VWS V14.00,2013-06-03 00:58:00,
2013-06-02 18:03:00,92.8,32.8,29.53,SW,225,5.0,8.0,12,0.00,,---,0.00,VWS V14.00,2013-06-03 01:03:00,
2013-06-02 18:08:00,92.5,32.6,29.53,West,262,7.0,16.0,12,0.00,,---,0.00,VWS V14.00,2013-06-03 01:08:00,
2013-06-02 18:13:00,92.2,32.3,29.53,SW,236,9.0,16.0,12,0.00,,---,0.00,VWS V14.00,2013-06-03 01:13:00,
2013-06-02 18:18:00,91.9,32.1,29.54,SW,234,6.0,16.0,12,0.00,,---,0.00,VWS V14.00,2013-06-03 01:18:00,
2013-06-02 18:23:00,91.8,32.0,29.54,WSW,239,8.0,16.0,12,0.00,,---,0.00,VWS V14.00,2013-06-03 01:23:00,
2013-06-02 18:28:00,91.5,31.8,29.54,WSW,257,9.0,16.0,12,0.00,,---,0.00,VWS V14.00,2013-06-03 01:28:00,
2013-06-02 18:33:00,91.3,31.6,29.54,SW,217,9.0,13.0,12,0.00,,---,0.00,VWS V14.00,2013-06-03 01:33:00,
2013-06-02 18:38:00,90.8,31.2,29.54,WSW,246,11.0,16.0,12,0.00,,---,0.00,VWS V14.00,2013-06-03 01:38:00,
2013-06-02 18:43:00,90.5,31.0,29.55,WSW,248,9.0,16.0,12,0.00,,---,0.00,VWS V14.00,2013-06-03 01:43:00,
2013-06-02 18:48:00,90.2,30.8,29.55,SW,221,3.0,16.0,12,0.00,,---,0.00,VWS V14.00,2013-06-03 01:48:00,
2013-06-02 18:53:00,90.1,32.7,29.54,WSW,244,11.0,16.0,13,0.00,,---,0.00,VWS V14.00,2013-06-03 01:53:00,
2013-06-02 18:58:00,89.7,32.4,29.55,SW,220,8.0,16.0,13,0.00,,---,0.00,VWS V14.00,2013-06-03 01:58:00,
2013-06-02 19:03:00,89.2,32.0,29.55,SW,217,5.0,9.0,13,0.00,,---,0.00,VWS V14.00,2013-06-03 02:03:00,
2013-06-02 19:08:00,88.8,31.7,29.55,WSW,245,5.0,12.0,13,0.00,,---,0.00,VWS V14.00,2013-06-03 02:08:00,
2013-06-02 19:13:00,88.3,33.1,29.55,SSW,213,5.0,12.0,14,0.00,,---,0.00,VWS V14.00,2013-06-03 02:13:00,
2013-06-02 19:18:00,87.8,32.7,29.55,SW,226,2.0,13.0,14,0.00,,---,0.00,VWS V14.00,2013-06-03 02:18:00,
2013-06-02 19:23:00,87.4,34.1,29.55,WSW,241,0.0,13.0,15,0.00,,---,0.00,VWS V14.00,2013-06-03 02:23:00,
2013-06-02 19:28:00,86.9,33.7,29.55,SW,227,0.0,13.0,15,0.00,,---,0.00,VWS V14.00,2013-06-03 02:28:00,
2013-06-02 19:33:00,86.4,33.3,29.55,SW,221,4.0,10.0,15,0.00,,---,0.00,VWS V14.00,2013-06-03 02:33:00,
2013-06-02 19:38:00,86.2,33.2,29.55,SSW,213,1.0,10.0,15,0.00,,---,0.00,VWS V14.00,2013-06-03 02:38:00,
2013-06-02 19:43:00,85.9,32.9,29.55,SW,216,2.0,10.0,15,0.00,,---,0.00,VWS V14.00,2013-06-03 02:43:00,
2013-06-02 19:48:00,85.5,32.6,29.56,SW,232,3.0,10.0,15,0.00,,---,0.00,VWS V14.00,2013-06-03 02:48:00,
2013-06-02 19:53:00,85.1,32.3,29.56,SW,227,3.0,10.0,15,0.00,,---,0.00,VWS V14.00,2013-06-03 02:53:00,
2013-06-02 19:58:00,84.9,32.2,29.56,WSW,242,2.0,10.0,15,0.00,,---,0.00,VWS V14.00,2013-06-03 02:58:00,
2013-06-02 20:03:00,84.8,32.1,29.56,WSW,238,6.0,11.0,15,0.00,,---,0.00,VWS V14.00,2013-06-03 03:03:00,
2013-06-02 20:08:00,84.6,31.9,29.56,SSW,202,10.0,11.0,15,0.00,,---,0.00,VWS V14.00,2013-06-03 03:08:00,
2013-06-02 20:13:00,84.5,31.8,29.56,SSW,195,8.0,13.0,15,0.00,,---,0.00,VWS V14.00,2013-06-03 03:13:00,
2013-06-02 20:18:00,84.5,33.4,29.56,WSW,238,7.0,13.0,16,0.00,,---,0.00,VWS V14.00,2013-06-03 03:18:00,
2013-06-02 20:23:00,84.5,33.4,29.57,West,278,0.0,14.0,16,0.00,,---,0.00,VWS V14.00,2013-06-03 03:23:00,
2013-06-02 20:28:00,84.1,33.1,29.57,WSW,238,0.0,14.0,16,0.00,,---,0.00,VWS V14.00,2013-06-03 03:28:00,
2013-06-02 20:33:00,83.1,32.3,29.57,SE,126,0.0,5.0,16,0.00,,---,0.00,VWS V14.00,2013-06-03 03:33:00,
2013-06-02 20:38:00,82.1,33.0,29.58,SE,127,0.0,5.0,17,0.00,,---,0.00,VWS V14.00,2013-06-03 03:38:00,
2013-06-02 20:43:00,81.0,32.1,29.58,NW,304,0.0,6.0,17,0.00,,---,0.00,VWS V14.00,2013-06-03 03:43:00,
2013-06-02 20:48:00,80.1,31.4,29.58,NW,304,0.0,6.0,17,0.00,,---,0.00,VWS V14.00,2013-06-03 03:48:00,
2013-06-02 20:53:00,79.1,32.0,29.59,NW,304,0.0,6.0,18,0.00,,---,0.00,VWS V14.00,2013-06-03 03:53:00,
2013-06-02 20:58:00,78.0,31.1,29.59,NW,304,0.0,6.0,18,0.00,,---,0.00,VWS V14.00,2013-06-03 03:58:00,
2013-06-02 21:01:00,77.6,30.8,29.59,NW,304,0.0,6.0,18,0.00,,---,0.00,VWS V14.00,2013-06-03 04:01:00,
2013-06-02 21:02:00,77.4,32.0,29.59,NW,304,0.0,0.0,19,0.00,,---,0.00,VWS V14.00,2013-06-03 04:02:00,
2013-06-02 21:07:00,76.3,31.0,29.58,NW,304,0.0,0.0,19,0.00,,---,0.00,VWS V14.00,2013-06-03 04:07:00,
2013-06-02 21:12:00,74.9,29.9,29.59,NW,304,0.0,0.0,19,0.00,,---,0.00,VWS V14.00,2013-06-03 04:12:00,
2013-06-02 21:17:00,73.5,30.0,29.59,NW,304,0.0,0.0,20,0.00,,---,0.00,VWS V14.00,2013-06-03 04:17:00,
2013-06-02 21:22:00,72.5,30.4,29.59,NW,304,0.0,0.0,21,0.00,,---,0.00,VWS V14.00,2013-06-03 04:22:00,
2013-06-02 21:27:00,71.8,30.9,29.59,NW,304,0.0,0.0,22,0.00,,---,0.00,VWS V14.00,2013-06-03 04:27:00,
2013-06-02 21:32:00,71.3,30.5,29.59,NW,304,0.0,0.0,22,0.00,,---,0.00,VWS V14.00,2013-06-03 04:32:00,
2013-06-02 21:37:00,70.9,30.2,29.59,NW,304,0.0,0.0,22,0.00,,---,0.00,VWS V14.00,2013-06-03 04:37:00,
2013-06-02 21:42:00,70.4,29.8,29.59,NW,304,0.0,0.0,22,0.00,,---,0.00,VWS V14.00,2013-06-03 04:42:00,
2013-06-02 21:47:00,69.9,30.5,29.60,NW,304,0.0,0.0,23,0.00,,---,0.00,VWS V14.00,2013-06-03 04:47:00,
2013-06-02 21:52:00,69.8,31.4,29.60,NW,304,0.0,0.0,24,0.00,,---,0.00,VWS V14.00,2013-06-03 04:52:00,
2013-06-02 21:57:00,70.0,31.6,29.60,NW,304,0.0,0.0,24,0.00,,---,0.00,VWS V14.00,2013-06-03 04:57:00,
2013-06-02 22:02:00,70.2,31.8,29.60,NW,304,0.0,0.0,24,0.00,,---,0.00,VWS V14.00,2013-06-03 05:02:00,
2013-06-02 22:07:00,70.3,30.8,29.60,NW,304,0.0,0.0,23,0.00,,---,0.00,VWS V14.00,2013-06-03 05:07:00,
2013-06-02 22:12:00,70.2,31.8,29.60,NW,304,0.0,0.0,24,0.00,,---,0.00,VWS V14.00,2013-06-03 05:12:00,
2013-06-02 22:17:00,70.2,31.8,29.60,NW,304,0.0,0.0,24,0.00,,---,0.00,VWS V14.00,2013-06-03 05:17:00,
2013-06-02 22:22:00,70.2,31.8,29.60,NW,304,0.0,0.0,24,0.00,,---,0.00,VWS V14.00,2013-06-03 05:22:00,
2013-06-02 22:27:00,70.2,31.8,29.60,NW,304,0.0,0.0,24,0.00,,---,0.00,VWS V14.00,2013-06-03 05:27:00,
2013-06-02 22:32:00,70.0,30.5,29.60,NW,304,0.0,0.0,23,0.00,,---,0.00,VWS V14.00,2013-06-03 05:32:00,
2013-06-02 22:37:00,69.3,31.0,29.60,NW,304,0.0,0.0,24,0.00,,---,0.00,VWS V14.00,2013-06-03 05:37:00,
2013-06-02 22:42:00,68.5,30.3,29.61,NW,304,0.0,0.0,24,0.00,,---,0.00,VWS V14.00,2013-06-03 05:42:00,
2013-06-02 22:47:00,67.5,30.5,29.61,NW,304,0.0,0.0,25,0.00,,---,0.00,VWS V14.00,2013-06-03 05:47:00,
2013-06-02 22:52:00,66.7,29.8,29.60,NW,304,0.0,0.0,25,0.00,,---,0.00,VWS V14.00,2013-06-03 05:52:00,
2013-06-02 22:57:00,66.0,30.2,29.60,NW,304,0.0,0.0,26,0.00,,---,0.00,VWS V14.00,2013-06-03 05:57:00,
2013-06-02 23:02:00,66.1,31.2,29.61,NW,304,0.0,0.0,27,0.00,,---,0.00,VWS V14.00,2013-06-03 06:02:00,
2013-06-02 23:07:00,66.6,30.7,29.61,NW,304,0.0,0.0,26,0.00,,---,0.00,VWS V14.00,2013-06-03 06:07:00,
2013-06-02 23:12:00,66.9,30.9,29.62,NW,304,0.0,0.0,26,0.00,,---,0.00,VWS V14.00,2013-06-03 06:12:00,
2013-06-02 23:17:00,67.5,31.4,29.62,NW,304,0.0,0.0,26,0.00,,---,0.00,VWS V14.00,2013-06-03 06:17:00,
2013-06-02 23:22:00,67.6,30.6,29.62,NW,304,0.0,0.0,25,0.00,,---,0.00,VWS V14.00,2013-06-03 06:22:00,
2013-06-02 23:27:00,67.2,30.2,29.62,NW,304,0.0,0.0,25,0.00,,---,0.00,VWS V14.00,2013-06-03 06:27:00,
2013-06-02 23:32:00,66.4,30.5,29.62,NW,304,0.0,0.0,26,0.00,,---,0.00,VWS V14.00,2013-06-03 06:32:00,
2013-06-02 23:37:00,66.2,30.3,29.62,NW,304,0.0,0.0,26,0.00,,---,0.00,VWS V14.00,2013-06-03 06:37:00,
2013-06-02 23:42:00,66.0,30.2,29.62,NW,304,0.0,0.0,26,0.00,,---,0.00,VWS V14.00,2013-06-03 06:42:00,
2013-06-02 23:47:00,65.7,29.0,29.63,NW,304,0.0,0.0,25,0.00,,---,0.00,VWS V14.00,2013-06-03 06:47:00,
2013-06-02 23:52:00,65.1,29.4,29.63,NW,304,0.0,0.0,26,0.00,,---,0.00,VWS V14.00,2013-06-03 06:52:00,
2013-06-02 23:58:00,64.8,30.1,29.62,NW,304,0.0,0.0,27,0.00,,---,0.00,VWS V14.00,2013-06-03 06:58:00,